Tracking 31011 objects as of 12-Jul-2025
HD Live streaming from Space Station
objects crossing your sky now

FENGYUN 1C DEB

Track FENGYUN 1C DEB now!
10-day predictions


NORAD ID: 30345
Int'l Code: 1999-025ABG
Perigee: 756.4 km
Apogee: 778.8 km
Inclination: 98.9 °
Period: 100.0 minutes
Semi major axis: 7138 km
RCS: 0.035 m2 (small)
Launch date: May 10, 1999
Source: People's Republic of China (PRC)
Launch site: Taiyaun Space Center, China (TSC)

Note: This is SATELLITE DEBRIS
Your satellite tracking list
Your tracking list is empty




NASA's NSSDC Master Catalog

Two Line Element Set (TLE):
1 30345U 99025ABG 25192.85793837  .00003199  00000-0  10418-2 0  9997
2 30345  98.9297 245.6819 0015654 348.0793  12.0021 14.39399601955584
Source of the keplerian elements: AFSPC